This is the latest recevied weather packets stored in our database for station/object WA1OUI. If no packets are shown the sender has not sent any weather packets the latest 10 day(s).
| Time | Temp. | Humidity | Pressure | Rain* | Wind** | Luminosity | Snow |
|---|---|---|---|---|---|---|---|
| 1778004257 | 27.22° C | 41% | 1005.9 hPa | 0 mm | - | 694 W/m² | - |
| 1778003954 | 27.22° C | 42% | 1005.7 hPa | 0 mm | - | 717 W/m² | - |
| 1778003650 | 26.67° C | 42% | 1005.7 hPa | 0 mm | - | 707 W/m² | - |
| 1778003346 | 26.67° C | 43% | 1005.8 hPa | 0 mm | - | 721 W/m² | - |
| 1778003044 | 26.67° C | 42% | 1005.9 hPa | 0 mm | - | 724 W/m² | - |
| 1778002740 | 26.67° C | 42% | 1006 hPa | 0 mm | - | 738 W/m² | - |
| 1778002436 | 26.67° C | 42% | 1005.8 hPa | 0 mm | - | 741 W/m² | - |
| 1778002134 | 27.22° C | 41% | 1005.9 hPa | 0 mm | - | 750 W/m² | - |
| 1778001831 | 26.67° C | 41% | 1006.1 hPa | 0 mm | - | 751 W/m² | - |
| 1778001531 | 26.67° C | 41% | 1006.2 hPa | 0 mm | - | 757 W/m² | - |
| 1778001228 | 26.67° C | 41% | 1006.3 hPa | 0 mm | - | 756 W/m² | - |
| 1778000924 | 26.67° C | 41% | 1006.4 hPa | 0 mm | - | 765 W/m² | - |
| 1778000621 | 26.11° C | 43% | 1006.3 hPa | 0 mm | - | 768 W/m² | - |
| 1778000317 | 26.11° C | 42% | 1006.3 hPa | 0 mm | - | 771 W/m² | - |
| 1778000012 | 26.67° C | 41% | 1006.6 hPa | 0 mm | - | 772 W/m² | - |
| 1777999708 | 26.67° C | 42% | 1006.5 hPa | 0 mm | - | 778 W/m² | - |
| 1777999405 | 26.67° C | 44% | 1006.6 hPa | 0 mm | - | 774 W/m² | - |
| 1777999104 | 26.11° C | 41% | 1006.7 hPa | 0 mm | - | 776 W/m² | - |
| 1777998802 | 26.11° C | 44% | 1006.8 hPa | 0 mm | - | 775 W/m² | - |
| 1777998500 | 25.56° C | 44% | 1006.9 hPa | 0 mm | - | 777 W/m² | - |
| 1777998196 | 25.56° C | 44% | 1007 hPa | 0 mm | - | 771 W/m² | - |
| 1777997893 | 25.56° C | 46% | 1007.2 hPa | 0 mm | - | 771 W/m² | - |
| 1777997590 | 25.56° C | 47% | 1007.2 hPa | 0 mm | - | 777 W/m² | - |
| 1777997288 | 25.56° C | 45% | 1007.2 hPa | 0 mm | - | 774 W/m² | - |
| 1777996985 | 25.56° C | 45% | 1007.2 hPa | 0 mm | - | 772 W/m² | - |
* Rain latest hour (hover to see other rain measurements)
** Current wind speed in m/s (hover to see current wind gust speed)